North Myrtle Beach, SC

3:31 AM EST on December 11, 2019 (GMT -0500)
Grand Strand

Weather History for KCRE - November, 2019

Change the Weather History Date:

Tuesday, November 12, 2019

  Actual Average Record
Temperature  
Mean Temperature 57 °F 58 °F  
Max Temperature 75 °F 68 °F 80 °F (1994)
Min Temperature 39 °F 47 °F 23 °F (1943)
Degree Days  
Heating Degree Days 8 8  
Month to date heating degree days 96 83  
Since 1 July heating degree days 108 173  
Cooling Degree Days 0 1  
Month to date cooling degree days 1 12  
Year to date cooling degree days 2380 1895  
Growing Degree Days 7 (Base 50)    
Moisture  
Dew Point 47 °F    
Average Humidity 79    
Maximum Humidity 100    
Minimum Humidity 58    
Precipitation  
Precipitation 0.32 in 0.09 in 1.44 in (1961)
Month to date precipitation 2.19 1.24  
Year to date precipitation 48.90 46.75  
Sea Level Pressure  
Sea Level Pressure 29.97 in    
Wind  
Wind Speed 9 mph (North)    
Max Wind Speed 23 mph    
Max Gust Speed 33 mph    
Visibility 8 miles    
Events Rain    
T = Trace of Precipitation, MM = Missing Value Source: NWS Daily Summary

Daily Weather History Graph

Daily Weather History Graph

Search for Another Location

Airport or City:

Astronomy

Nov. 12, 2019 Rise Set
Actual Time 6:43 AM EST 5:13 PM EST
Civil Twilight 6:17 AM EST 5:39 PM EST
Nautical Twilight 5:47 AM EST 6:09 PM EST
Astronomical Twilight 5:18 AM EST 6:39 PM EST
Moon 5:38 PM EST (11/12) 6:36 AM EST (11/12)
Length of Visible Light 11h 22m
Length of Day
10h 29m
Full, 100% of the Moon is Illuminated
Nov 12
Full
Nov 19
Last Quarter
Nov 26
New
Dec 4
First Quarter
Dec 12
Full

Hourly Weather History & Observations

Time (EST) Temp. Windchill Dew Point Humidity Pressure Visibility Wind Dir Wind Speed Gust Speed Precip Events Conditions
12:53 AM 62.1 °F - 57.0 °F 84% 30.01 in 10.0 mi SSW 5.8 mph - N/A   Clear
2:53 AM 57.9 °F - 55.0 °F 90% 29.96 in 10.0 mi Calm Calm - N/A   Clear
3:53 AM 55.9 °F - 54.0 °F 93% 29.93 in 10.0 mi Calm Calm - N/A   Clear
4:53 AM 55.0 °F - 54.0 °F 96% 29.92 in 9.0 mi Calm Calm - N/A   Clear
5:53 AM 54.0 °F - 53.1 °F 97% 29.91 in 9.0 mi Calm Calm - N/A   Clear
6:51 AM 53.6 °F - 53.6 °F 100% 29.89 in 1.5 mi Calm Calm - N/A   Clear
6:53 AM 53.1 °F - 53.1 °F 100% 29.89 in 1.2 mi NE 3.5 mph - N/A   Clear
7:53 AM 64.0 °F - 61.0 °F 90% 29.90 in 10.0 mi Calm Calm - N/A   Clear
8:53 AM 66.0 °F - 62.1 °F 87% 29.90 in 10.0 mi SW 4.6 mph - N/A   Clear
9:53 AM 72.0 °F - 62.1 °F 71% 29.90 in 10.0 mi WSW 8.1 mph - N/A   Clear
10:53 AM 73.9 °F - 59.0 °F 59% 29.88 in 10.0 mi WSW 12.7 mph 21.9 mph N/A   Partly Cloudy
11:53 AM 75.0 °F - 59.0 °F 57% 29.86 in 10.0 mi West 13.8 mph 24.2 mph N/A   Mostly Cloudy
12:53 PM 69.1 °F - 59.0 °F 70% 29.84 in 10.0 mi NNW 11.5 mph 19.6 mph N/A   Overcast
1:53 PM 66.9 °F - 57.9 °F 73% 29.84 in 10.0 mi North 9.2 mph - N/A   Mostly Cloudy
2:09 PM 64.9 °F - 57.0 °F 75% 29.84 in 10.0 mi North 9.2 mph 17.3 mph 0.00 in Rain Light Rain
2:53 PM 57.9 °F - 55.0 °F 90% 29.87 in 4.0 mi North 10.4 mph 20.7 mph 0.02 in Rain Rain
3:13 PM 51.1 °F - 48.9 °F 92% 29.89 in 6.0 mi North 16.1 mph 26.5 mph 0.02 in Rain Light Rain
3:53 PM 48.0 °F - 45.0 °F 89% 29.92 in 7.0 mi North 18.4 mph 33.4 mph 0.04 in Rain Light Rain
4:11 PM 46.9 °F - 44.1 °F 90% 29.92 in 9.0 mi North 15.0 mph 28.8 mph 0.00 in Rain Light Rain
4:37 PM 46.0 °F 39.3 °F 43.0 °F 89% 29.94 in 4.0 mi North 16.1 mph 29.9 mph 0.06 in Rain Rain
4:53 PM 45.0 °F 37.6 °F 42.1 °F 90% 29.96 in 5.0 mi North 17.3 mph 25.3 mph 0.10 in Rain Rain
5:02 PM 44.1 °F 35.9 °F 41.0 °F 89% 29.96 in 6.0 mi North 19.6 mph 27.6 mph 0.01 in Rain Rain
5:10 PM 43.0 °F 36.0 °F 39.9 °F 89% 29.97 in 5.0 mi North 13.8 mph 29.9 mph 0.03 in Rain Rain
5:53 PM 42.1 °F 34.9 °F 39.0 °F 89% 29.98 in 8.0 mi North 13.8 mph 23.0 mph 0.10 in Rain Light Rain
6:26 PM 41.0 °F 33.9 °F 39.0 °F 93% 30.01 in 9.0 mi North 12.7 mph 24.2 mph 0.03 in Rain Rain
6:53 PM 41.0 °F 34.7 °F 39.0 °F 93% 30.03 in 10.0 mi North 10.4 mph 20.7 mph 0.05 in Rain Light Rain
7:53 PM 41.0 °F 32.5 °F 37.0 °F 86% 30.07 in 10.0 mi North 17.3 mph 25.3 mph 0.01 in   Overcast
8:06 PM 41.0 °F 33.5 °F 37.0 °F 86% 30.08 in 10.0 mi North 13.8 mph 24.2 mph N/A   Overcast
8:20 PM 41.0 °F 34.7 °F 36.0 °F 82% 30.09 in 10.0 mi North 10.4 mph 25.3 mph N/A   Overcast
8:53 PM 41.0 °F 34.3 °F 35.1 °F 79% 30.11 in 10.0 mi North 11.5 mph 24.2 mph N/A   Overcast
9:53 PM 39.9 °F 32.9 °F 35.1 °F 83% 30.13 in 10.0 mi North 11.5 mph 20.7 mph N/A   Overcast
10:53 PM 39.9 °F 32.5 °F 34.0 °F 79% 30.16 in 10.0 mi North 12.7 mph 25.3 mph N/A   Mostly Cloudy
11:24 PM 39.9 °F 33.9 °F 35.1 °F 83% 30.17 in 10.0 mi North 9.2 mph - N/A   Mostly Cloudy
11:53 PM 39.0 °F 31.4 °F 30.9 °F 73% 30.18 in 10.0 mi North 12.7 mph 19.6 mph N/A   Overcast